This is the latest recevied weather packets stored in our database for station/object WB5TZJ. If no packets are shown the sender has not sent any weather packets the latest 10 day(s).
| Time | Temp. | Humidity | Pressure | Rain* | Wind** | Luminosity | Snow |
|---|---|---|---|---|---|---|---|
| 1777593049 | 22.78° C | 54% | 1006.7 hPa | 0 mm | - | - | - |
| 1777592449 | 22.22° C | 47% | 1007.4 hPa | 0 mm | - | - | - |
| 1777591849 | 22.22° C | 49% | 1008.1 hPa | 0 mm | - | - | - |
| 1777591249 | 22.78° C | 47% | 1007.7 hPa | 0 mm | - | - | - |
| 1777590649 | 22.78° C | 45% | 1008.1 hPa | 0 mm | - | - | - |
| 1777590049 | 22.78° C | 47% | 1008.8 hPa | 0 mm | - | - | - |
| 1777589449 | 22.78° C | 50% | 1009.1 hPa | 0 mm | - | - | - |
| 1777588849 | 22.22° C | 47% | 1009.1 hPa | 0 mm | - | - | - |
| 1777588249 | 22.78° C | 46% | 1009.1 hPa | 0 mm | - | - | - |
| 1777587649 | 22.78° C | 48% | 1008.4 hPa | 0 mm | - | - | - |
| 1777587050 | 22.78° C | 52% | 1008.1 hPa | 0 mm | - | - | - |
| 1777586450 | 22.22° C | 46% | 1008.8 hPa | 0 mm | - | - | - |
| 1777585850 | 22.22° C | 48% | 1008.8 hPa | 0 mm | - | - | - |
| 1777585250 | 22.22° C | 46% | 1008.4 hPa | 0 mm | - | - | - |
| 1777584650 | 22.22° C | 45% | 1008.4 hPa | 0 mm | - | - | - |
| 1777584050 | 22.78° C | 45% | 1008.4 hPa | 0 mm | - | - | - |
| 1777583450 | 22.78° C | 46% | 1008.1 hPa | 0 mm | - | - | - |
| 1777582850 | 22.78° C | 50% | 1008.4 hPa | 0 mm | - | - | - |
| 1777582250 | 22.22° C | 50% | 1008.4 hPa | 0 mm | - | - | - |
| 1777581650 | 22.22° C | 45% | 1009.1 hPa | 0 mm | - | - | - |
| 1777581050 | 22.22° C | 48% | 1009.1 hPa | 0 mm | - | - | - |
| 1777580450 | 22.78° C | 46% | 1009.1 hPa | 0 mm | - | - | - |
| 1777579850 | 22.78° C | 45% | 1009.1 hPa | 0 mm | - | - | - |
| 1777579250 | 22.78° C | 45% | 1009.4 hPa | 0 mm | - | - | - |
| 1777578650 | 22.78° C | 48% | 1009.4 hPa | 0 mm | - | - | - |
* Rain latest hour (hover to see other rain measurements)
** Current wind speed in m/s (hover to see current wind gust speed)